FIN461 LFRS-EIDW

Flight info

Callsign FIN461
Flight time N/A
Altitude 36000
Route ERBIN4S ERBIN DCT LUTAS DCT BAGAD DCT TERKU DCT DOLUR DCT UPCAB DCT IJALA DCT EVRIN DCT BUNED BUNED4L
Aircraft A321/M-SDE3FGHIRWY/LB1

Departure

Time N/A
Airport Nantes Atlantique Airport (LFRS)

Arrival

Time 2026-05-03 20:41
Airport Dublin Airport (EIDW)
Time Latitude Longitude Altitude Speed Heading
2026-05-03 20:15 52.70424 -6.63652 20785 ft 377 kts 358°
2026-05-03 20:15 52.73008 -6.63862 20335 ft 374 kts 358°
2026-05-03 20:15 52.75609 -6.64073 19883 ft 372 kts 358°
2026-05-03 20:15 52.78159 -6.64281 19436 ft 370 kts 358°
2026-05-03 20:16 52.80733 -6.64491 18985 ft 368 kts 358°
2026-05-03 20:16 52.83257 -6.64697 18540 ft 366 kts 358°
2026-05-03 20:16 52.85770 -6.64902 18097 ft 364 kts 358°
2026-05-03 20:16 52.88300 -6.65112 17647 ft 362 kts 356°
2026-05-03 20:17 52.90779 -6.65327 17206 ft 360 kts 356°
2026-05-03 20:17 52.93284 -6.65543 16758 ft 358 kts 356°
2026-05-03 20:17 52.95739 -6.65749 16319 ft 356 kts 357°
2026-05-03 20:17 52.98222 -6.65837 15850 ft 355 kts
2026-05-03 20:18 53.00566 -6.64766 15387 ft 353 kts 26°
2026-05-03 20:18 53.02519 -6.62383 14944 ft 351 kts 44°
2026-05-03 20:18 53.04210 -6.59456 14507 ft 349 kts 47°
2026-05-03 20:18 53.05839 -6.56530 14072 ft 347 kts 47°
2026-05-03 20:19 53.07468 -6.53617 13638 ft 345 kts 46°
2026-05-03 20:19 53.09114 -6.50701 13199 ft 343 kts 46°
2026-05-03 20:19 53.10737 -6.47851 12769 ft 341 kts 46°
2026-05-03 20:19 53.12385 -6.44982 12333 ft 339 kts 46°
2026-05-03 20:20 53.14007 -6.42157 11902 ft 336 kts 46°
2026-05-03 20:20 53.15609 -6.39301 11461 ft 334 kts 50°
2026-05-03 20:20 53.16716 -6.35974 11012 ft 331 kts 72°
2026-05-03 20:20 53.16981 -6.32183 10583 ft 328 kts 93°
2026-05-03 20:21 53.16803 -6.28439 10299 ft 319 kts 96°
2026-05-03 20:21 53.16584 -6.24850 10212 ft 305 kts 96°
2026-05-03 20:21 53.16379 -6.21414 10122 ft 291 kts 96°
2026-05-03 20:21 53.16190 -6.18096 10037 ft 279 kts 95°
2026-05-03 20:22 53.16014 -6.14865 9714 ft 278 kts 95°
2026-05-03 20:22 53.15844 -6.11695 9378 ft 276 kts 95°
2026-05-03 20:22 53.15675 -6.08532 9050 ft 274 kts 95°
2026-05-03 20:22 53.15507 -6.05363 8723 ft 272 kts 95°
2026-05-03 20:23 53.15342 -6.02264 8403 ft 270 kts 95°
2026-05-03 20:23 53.15173 -5.99129 8080 ft 268 kts 95°
2026-05-03 20:23 53.15008 -5.96075 7766 ft 266 kts 95°
2026-05-03 20:23 53.14841 -5.93027 7453 ft 264 kts 95°
2026-05-03 20:24 53.14673 -5.89955 7154 ft 261 kts 95°
2026-05-03 20:24 53.14511 -5.87017 7020 ft 251 kts 95°
2026-05-03 20:24 53.14354 -5.84158 7015 ft 244 kts 95°
2026-05-03 20:24 53.14280 -5.81339 7001 ft 244 kts 83°
2026-05-03 20:25 53.14772 -5.78666 7006 ft 244 kts 63°
2026-05-03 20:25 53.15591 -5.76208 7009 ft 244 kts 59°
2026-05-03 20:25 53.16465 -5.73749 7009 ft 244 kts 59°
2026-05-03 20:25 53.17321 -5.71325 7009 ft 244 kts 59°
2026-05-03 20:26 53.18176 -5.68862 7009 ft 244 kts 60°
2026-05-03 20:26 53.19013 -5.66426 7009 ft 244 kts 60°
2026-05-03 20:26 53.19985 -5.64093 7005 ft 244 kts 46°
2026-05-03 20:26 53.21246 -5.62240 7009 ft 244 kts 37°
2026-05-03 20:27 53.22618 -5.60547 7008 ft 244 kts 35°
2026-05-03 20:27 53.23982 -5.58903 7009 ft 244 kts 36°
2026-05-03 20:27 53.25362 -5.57226 7009 ft 244 kts 36°
2026-05-03 20:27 53.26720 -5.55564 7009 ft 244 kts 36°
2026-05-03 20:28 53.28096 -5.53878 7008 ft 244 kts 33°
2026-05-03 20:28 53.29591 -5.52597 7006 ft 244 kts 18°
2026-05-03 20:28 53.31238 -5.51858 7008 ft 244 kts 12°
2026-05-03 20:28 53.32883 -5.51265 7008 ft 244 kts 11°
2026-05-03 20:29 53.34553 -5.50674 7009 ft 244 kts 12°
2026-05-03 20:29 53.36198 -5.50081 7009 ft 244 kts 12°
2026-05-03 20:29 53.37864 -5.49469 7009 ft 244 kts 12°
2026-05-03 20:29 53.39513 -5.48920 7005 ft 244 kts
2026-05-03 20:30 53.41214 -5.48980 7006 ft 244 kts 351°
2026-05-03 20:30 53.42869 -5.49486 7008 ft 244 kts 348°
2026-05-03 20:30 53.44538 -5.50079 7009 ft 244 kts 347°
2026-05-03 20:30 53.46184 -5.50665 7009 ft 244 kts 348°
2026-05-03 20:31 53.47854 -5.51248 7009 ft 244 kts 348°
2026-05-03 20:31 53.49503 -5.51814 7009 ft 244 kts 348°
2026-05-03 20:31 53.51147 -5.52562 7005 ft 244 kts 336°
2026-05-03 20:31 53.52617 -5.53934 7009 ft 244 kts 326°
2026-05-03 20:32 53.54012 -5.55586 7009 ft 244 kts 323°
2026-05-03 20:32 53.55373 -5.57252 7009 ft 244 kts 323°
2026-05-03 20:32 53.56754 -5.58938 7009 ft 244 kts 324°
2026-05-03 20:32 53.58068 -5.60700 6997 ft 244 kts 309°
2026-05-03 20:33 53.58747 -5.63241 6995 ft 244 kts 274°
2026-05-03 20:33 53.58448 -5.66031 6987 ft 244 kts 241°
2026-05-03 20:33 53.57343 -5.68155 6663 ft 245 kts 218°
2026-05-03 20:33 53.56000 -5.69920 6351 ft 243 kts 217°
2026-05-03 20:34 53.54680 -5.71649 6057 ft 241 kts 218°
2026-05-03 20:34 53.53368 -5.73400 5769 ft 239 kts 218°
2026-05-03 20:34 53.52087 -5.75133 5490 ft 238 kts 218°
2026-05-03 20:34 53.50795 -5.76894 5208 ft 237 kts 219°
2026-05-03 20:35 53.49527 -5.78625 4932 ft 237 kts 219°
2026-05-03 20:35 53.48253 -5.80388 4651 ft 236 kts 221°
2026-05-03 20:35 53.47090 -5.82280 4376 ft 235 kts 226°
2026-05-03 20:35 53.45970 -5.84288 4098 ft 234 kts 227°
2026-05-03 20:36 53.44884 -5.86258 3998 ft 232 kts 227°
2026-05-03 20:36 53.43780 -5.88254 3850 ft 232 kts 227°
2026-05-03 20:36 53.42693 -5.90212 3691 ft 231 kts 227°
2026-05-03 20:36 53.41605 -5.92164 3507 ft 230 kts 227°
2026-05-03 20:37 53.40562 -5.94227 3141 ft 235 kts 241°
2026-05-03 20:37 53.40169 -5.96884 2671 ft 239 kts 272°
2026-05-03 20:37 53.40391 -5.99592 2517 ft 230 kts 281°
2026-05-03 20:37 53.40675 -6.02193 2515 ft 227 kts 280°
2026-05-03 20:38 53.40927 -6.04846 2488 ft 227 kts 277°
2026-05-03 20:38 53.41090 -6.07409 2368 ft 213 kts 275°
2026-05-03 20:38 53.41206 -6.09740 2159 ft 192 kts 275°
2026-05-03 20:38 53.41311 -6.11853 1864 ft 173 kts 275°
2026-05-03 20:39 53.41412 -6.13766 1603 ft 156 kts 275°
2026-05-03 20:39 53.41506 -6.15507 1372 ft 145 kts 275°
2026-05-03 20:39 53.41597 -6.17182 1182 ft 144 kts 275°
2026-05-03 20:39 53.41687 -6.18846 991 ft 143 kts 275°
2026-05-03 20:40 53.41777 -6.20513 801 ft 143 kts 275°
2026-05-03 20:40 53.41867 -6.22160 614 ft 143 kts 275°
2026-05-03 20:40 53.41957 -6.23817 424 ft 142 kts 275°
2026-05-03 20:40 53.42049 -6.25478 267 ft 141 kts 275°
2026-05-03 20:41 53.42128 -6.26919 251 ft 86 kts 276°
2026-05-03 20:41 53.42165 -6.27562 251 ft 45 kts 276°
2026-05-03 20:41 53.42234 -6.27940 251 ft 29 kts 300°
2026-05-03 20:41 53.42272 -6.28052 251 ft 0 kts 300°
2026-05-03 20:42 53.42273 -6.28053 251 ft 0 kts 300°
2026-05-03 20:42 53.42273 -6.28054 251 ft 0 kts 300°
2026-05-03 20:43 53.42274 -6.28057 251 ft 1 kts 300°
2026-05-03 20:43 53.42278 -6.28070 251 ft 2 kts 300°
2026-05-03 20:43 53.42293 -6.28106 251 ft 5 kts 314°
2026-05-03 20:44 53.42337 -6.28120 251 ft 8 kts 25°
2026-05-03 20:44 53.42360 -6.28018 251 ft 11 kts 95°
2026-05-03 20:44 53.42353 -6.27870 251 ft 14 kts 95°
2026-05-03 20:44 53.42343 -6.27689 251 ft 16 kts 95°
2026-05-03 20:45 53.42332 -6.27485 251 ft 16 kts 95°
2026-05-03 20:45 53.42320 -6.27276 251 ft 19 kts 96°
2026-05-03 20:45 53.42310 -6.27084 251 ft 15 kts 95°
2026-05-03 20:45 53.42300 -6.26896 251 ft 17 kts 96°
2026-05-03 20:46 53.42288 -6.26688 251 ft 19 kts 95°
2026-05-03 20:46 53.42278 -6.26511 251 ft 11 kts 95°
2026-05-03 20:46 53.42269 -6.26361 251 ft 14 kts 96°
2026-05-03 20:46 53.42262 -6.26227 251 ft 12 kts 95°
2026-05-03 20:47 53.42253 -6.26064 251 ft 14 kts 95°
2026-05-03 20:47 53.42244 -6.25894 251 ft 13 kts 95°
2026-05-03 20:47 53.42235 -6.25722 251 ft 16 kts 95°
2026-05-03 20:47 53.42224 -6.25519 251 ft 18 kts 95°
2026-05-03 20:48 53.42212 -6.25315 251 ft 16 kts 96°
2026-05-03 20:48 53.42202 -6.25138 251 ft 10 kts 95°
2026-05-03 20:48 53.42195 -6.25002 251 ft 13 kts 95°
2026-05-03 20:48 53.42186 -6.24831 251 ft 15 kts 95°
2026-05-03 20:49 53.42181 -6.24735 251 ft 0 kts 96°
2026-05-03 20:49 53.42182 -6.24726 251 ft 1 kts 62°
2026-05-03 20:49 53.42191 -6.24730 251 ft 2 kts 306°
2026-05-03 20:49 53.42198 -6.24742 251 ft 2 kts 331°
2026-05-03 20:50 53.42227 -6.24764 251 ft 6 kts 336°
2026-05-03 20:50 53.42277 -6.24802 251 ft 9 kts 338°
2026-05-03 20:50 53.42346 -6.24794 251 ft 11 kts 41°
2026-05-03 20:50 53.42379 -6.24743 251 ft 7 kts 46°
2026-05-03 20:51 53.42411 -6.24666 251 ft 3 kts 60°
2026-05-03 20:51 53.42415 -6.24624 251 ft 4 kts 136°
2026-05-03 20:51 53.42399 -6.24599 251 ft 0 kts 137°
2026-05-03 20:51 53.42386 -6.24579 251 ft 4 kts 136°
2026-05-03 20:52 53.42365 -6.24543 251 ft 0 kts 135°
2026-05-03 20:52 53.42361 -6.24537 251 ft 0 kts 135°
2026-05-03 20:52 53.42360 -6.24536 251 ft 0 kts 135°
2026-05-03 20:52 53.42356 -6.24528 251 ft 1 kts 135°
2026-05-03 20:53 53.42352 -6.24521 251 ft 0 kts 135°